When you browse on this site, cookies collect data to enhance your experience and personalize the content and advertising you see.
Visit our Privacy Policy to learn more. By continuing to use the site, you agree to this use of cookies and data.
  • In Netherlands
  • List of Countries
  • For 7 days
  • Water Temperature
  • Satellite Maps
  • Weather Map
  • Weather Widgets
  • user-avatar
    Login

    Hourly Weather Gold Coast

    Today, 27 June, Thursday

    Time Temperature Precipitation Wind Pressure Humidity
    00:00 +14°C° 0.3 mm 4 mps 767 mmHg 94%
    01:00 +13°C° 0.3 mm 4 mps 767 mmHg 96%
    02:00 +13°C° 0.1 mm 4 mps 767 mmHg 95%
    03:00 +13°C° 0.1 mm 4 mps 767 mmHg 95%
    04:00 +13°C° 0 mm 4 mps 767 mmHg 94%
    05:00 +13°C° 0.1 mm 5 mps 767 mmHg 94%
    06:00 +14°C° 0.1 mm 5 mps 767 mmHg 94%
    07:00 +14°C° 0.1 mm 5 mps 768 mmHg 94%
    08:00 +15°C° 0.1 mm 5 mps 768 mmHg 87%
    09:00 +17°C° 0.1 mm 5 mps 768 mmHg 80%
    10:00 +20°C° 0 mm 5 mps 768 mmHg 72%
    11:00 +20°C° 0.1 mm 5 mps 768 mmHg 71%
    12:00 +21°C° 0.1 mm 6 mps 767 mmHg 69%
    13:00 +21°C° 0.1 mm 6 mps 766 mmHg 68%
    14:00 +20°C° 0.3 mm 6 mps 766 mmHg 71%
    15:00 +20°C° 0.3 mm 5 mps 766 mmHg 74%
    16:00 +19°C° 0.3 mm 5 mps 767 mmHg 77%
    17:00 +17°C° 0.4 mm 5 mps 767 mmHg 83%
    18:00 +15°C° 0.4 mm 4 mps 767 mmHg 89%
    19:00 +14°C° 0.4 mm 4 mps 768 mmHg 95%
    20:00 +14°C° 0.6 mm 4 mps 768 mmHg 95%
    21:00 +14°C° 0.6 mm 4 mps 768 mmHg 96%
    22:00 +14°C° 0.6 mm 4 mps 768 mmHg 96%
    23:00 +14°C° 0.5 mm 4 mps 768 mmHg 96%

    Tomorrow, 28 June, Friday

    Time Temperature Precipitation Wind Pressure Humidity
    00:00 +14°C° 0.5 mm 4 mps 768 mmHg 96%
    01:00 +13°C° 0.5 mm 4 mps 768 mmHg 96%
    02:00 +13°C° 0.2 mm 4 mps 767 mmHg 96%
    03:00 +13°C° 0.2 mm 3 mps 767 mmHg 96%
    04:00 +13°C° 0.2 mm 3 mps 767 mmHg 97%
    05:00 +13°C° 0.2 mm 4 mps 767 mmHg 96%
    06:00 +13°C° 0.2 mm 4 mps 767 mmHg 96%
    07:00 +13°C° 0.2 mm 4 mps 768 mmHg 96%
    08:00 +15°C° 0.2 mm 5 mps 768 mmHg 89%
    09:00 +16°C° 0.2 mm 5 mps 768 mmHg 83%
    10:00 +19°C° 0.2 mm 6 mps 768 mmHg 76%
    11:00 +19°C° 0.1 mm 6 mps 768 mmHg 70%
    12:00 +20°C° 0.1 mm 6 mps 767 mmHg 64%
    13:00 +21°C° 0.1 mm 6 mps 766 mmHg 58%
    14:00 +20°C° 0.1 mm 6 mps 766 mmHg 63%
    15:00 +20°C° 0.1 mm 5 mps 766 mmHg 67%
    16:00 +19°C° 0.1 mm 5 mps 766 mmHg 71%
    17:00 +17°C° 0.1 mm 5 mps 766 mmHg 78%
    18:00 +15°C° 0.1 mm 4 mps 766 mmHg 85%
    19:00 +14°C° 0.1 mm 4 mps 766 mmHg 92%
    20:00 +14°C° 0 mm 4 mps 766 mmHg 92%
    21:00 +14°C° 0 mm 4 mps 767 mmHg 93%
    22:00 +14°C° 0 mm 4 mps 767 mmHg 93%
    23:00 +14°C° 0 mm 4 mps 766 mmHg 93%

    Day after tomorrow, 29 June, Saturday

    Time Temperature Precipitation Wind Pressure Humidity
    00:00 +14°C° 0 mm 4 mps 766 mmHg 93%
    01:00 +14°C° 0 mm 4 mps 766 mmHg 93%
    02:00 +14°C° 0 mm 4 mps 765 mmHg 93%
    03:00 +14°C° 0 mm 4 mps 765 mmHg 93%
    04:00 +13°C° 0 mm 4 mps 765 mmHg 93%
    05:00 +13°C° 0 mm 4 mps 765 mmHg 94%
    06:00 +13°C° 0 mm 4 mps 765 mmHg 94%
    07:00 +13°C° 0 mm 3 mps 765 mmHg 94%
    08:00 +15°C° 0.1 mm 4 mps 765 mmHg 90%
    09:00 +17°C° 0.1 mm 4 mps 765 mmHg 86%
    10:00 +19°C° 0.1 mm 4 mps 765 mmHg 81%
    11:00 +20°C° 0.1 mm 4 mps 764 mmHg 77%
    12:00 +21°C° 0.1 mm 4 mps 764 mmHg 72%
    13:00 +21°C° 0.1 mm 4 mps 763 mmHg 67%
    14:00 +21°C° 0.1 mm 4 mps 763 mmHg 69%
    15:00 +20°C° 0.1 mm 3 mps 763 mmHg 71%
    16:00 +20°C° 0.1 mm 3 mps 762 mmHg 73%
    17:00 +18°C° 0.1 mm 3 mps 763 mmHg 79%
    18:00 +17°C° 0.1 mm 2 mps 763 mmHg 86%
    19:00 +15°C° 0.1 mm 2 mps 763 mmHg 93%
    20:00 +15°C° 0.2 mm 2 mps 763 mmHg 93%
    21:00 +15°C° 0.2 mm 2 mps 763 mmHg 92%
    22:00 +15°C° 0.2 mm 2 mps 763 mmHg 92%
    23:00 +15°C° 0 mm 2 mps 763 mmHg 94%

    30 June, Sunday

    Time Temperature Precipitation Wind Pressure Humidity
    00:00 +14°C° 0 mm 2 mps 762 mmHg 95%
    01:00 +14°C° 0 mm 1 mps 762 mmHg 96%
    02:00 +14°C° 0 mm 1 mps 762 mmHg 96%
    03:00 +14°C° 0 mm 1 mps 761 mmHg 96%
    04:00 +14°C° 0 mm 1 mps 761 mmHg 96%
    05:00 +14°C° 0 mm 1 mps 762 mmHg 96%
    06:00 +14°C° 0 mm 2 mps 762 mmHg 96%
    07:00 +14°C° 0 mm 2 mps 762 mmHg 96%
    08:00 +16°C° 0 mm 1 mps 762 mmHg 84%
    09:00 +20°C° 0 mm 1 mps 762 mmHg 73%
    10:00 +23°C° 0 mm 1 mps 763 mmHg 61%
    11:00 +24°C° 0 mm 1 mps 762 mmHg 56%
    12:00 +24°C° 0 mm 1 mps 761 mmHg 50%
    13:00 +25°C° 0 mm 2 mps 760 mmHg 44%
    14:00 +24°C° 0 mm 2 mps 760 mmHg 50%
    15:00 +23°C° 0 mm 2 mps 760 mmHg 56%
    16:00 +21°C° 0 mm 2 mps 760 mmHg 63%
    17:00 +20°C° 0 mm 1 mps 760 mmHg 73%
    18:00 +18°C° 0 mm 1 mps 760 mmHg 83%
    19:00 +14°C° 0 mm 0 mps 761 mmHg 93%
    20:00 +14°C° 0 mm 0 mps 761 mmHg 92%
    21:00 +15°C° 0 mm 1 mps 761 mmHg 91%
    22:00 +15°C° 0 mm 1 mps 761 mmHg 90%
    23:00 +16°C° 0.1 mm 1 mps 761 mmHg 88%

    1 July, Monday

    Time Temperature Precipitation Wind Pressure Humidity
    00:00 +16°C° 0.1 mm 1 mps 761 mmHg 85%
    01:00 +16°C° 0.1 mm 1 mps 761 mmHg 82%
    02:00 +16°C° 0 mm 2 mps 761 mmHg 83%
    03:00 +16°C° 0 mm 2 mps 761 mmHg 84%
    04:00 +14°C° 0 mm 3 mps 761 mmHg 85%
    05:00 +14°C° 0 mm 3 mps 761 mmHg 87%
    06:00 +13°C° 0 mm 3 mps 762 mmHg 90%
    07:00 +12°C° 0 mm 3 mps 762 mmHg 93%
    08:00 +14°C° 0 mm 4 mps 762 mmHg 85%
    09:00 +17°C° 0 mm 4 mps 763 mmHg 78%
    10:00 +19°C° 0 mm 5 mps 763 mmHg 71%
    11:00 +19°C° 0.1 mm 5 mps 762 mmHg 70%
    12:00 +19°C° 0.1 mm 5 mps 762 mmHg 70%
    13:00 +19°C° 0.1 mm 5 mps 761 mmHg 69%
    14:00 +19°C° 0.1 mm 5 mps 761 mmHg 70%
    15:00 +19°C° 0.1 mm 5 mps 761 mmHg 71%
    16:00 +19°C° 0.1 mm 5 mps 761 mmHg 72%
    17:00 +17°C° 0 mm 4 mps 761 mmHg 79%
    18:00 +15°C° 0 mm 4 mps 761 mmHg 85%
    19:00 +14°C° 0 mm 4 mps 761 mmHg 91%
    20:00 +13°C° 0 mm 4 mps 762 mmHg 92%
    21:00 +13°C° 0 mm 3 mps 762 mmHg 92%
    22:00 +13°C° 0 mm 3 mps 762 mmHg 93%
    23:00 +12°C° 0 mm 3 mps 761 mmHg 93%

    2 July, Tuesday

    Time Temperature Precipitation Wind Pressure Humidity
    00:00 +12°C° 0 mm 3 mps 761 mmHg 93%
    01:00 +12°C° 0 mm 3 mps 761 mmHg 93%
    02:00 +13°C° 0 mm 2 mps 760 mmHg 93%
    03:00 +13°C° 0 mm 2 mps 760 mmHg 93%
    04:00 +13°C° 0 mm 2 mps 760 mmHg 93%
    05:00 +13°C° 0 mm 2 mps 760 mmHg 93%
    06:00 +13°C° 0 mm 2 mps 761 mmHg 93%
    07:00 +13°C° 0 mm 2 mps 761 mmHg 93%
    08:00 +15°C° 0 mm 1 mps 761 mmHg 83%
    09:00 +19°C° 0 mm 1 mps 761 mmHg 74%
    10:00 +21°C° 0 mm 1 mps 761 mmHg 64%
    11:00 +22°C° 0 mm 1 mps 760 mmHg 60%
    12:00 +23°C° 0 mm 1 mps 760 mmHg 56%
    13:00 +23°C° 0 mm 1 mps 759 mmHg 52%
    14:00 +23°C° 0 mm 1 mps 759 mmHg 56%
    15:00 +22°C° 0 mm 1 mps 759 mmHg 60%
    16:00 +21°C° 0 mm 1 mps 759 mmHg 65%
    17:00 +19°C° 0 mm 1 mps 759 mmHg 74%
    18:00 +16°C° 0 mm 1 mps 760 mmHg 84%
    19:00 +15°C° 0 mm 1 mps 760 mmHg 93%
    20:00 +14°C° 0 mm 1 mps 760 mmHg 94%
    21:00 +14°C° 0 mm 1 mps 760 mmHg 95%
    22:00 +14°C° 0 mm 1 mps 761 mmHg 95%
    23:00 +14°C° 0 mm 1 mps 761 mmHg 95%
    Show more